Powrót do katalogu

SL-14 DEB

AktywnyPO
NORAD 45296·DEBRIS·🇷🇺 Russia

Wystrzelony Aug 15, 1991 z Plesetsk Cosmodrome

Loading…

Następne Przeloty (najbliższe 24 godziny)

TLE

ŚwieżeSource: Space-Track

Epoka: Sep 14, 2026, 13:18 UTC

1 45296U 91056AJ  26257.55465906  .00003457  00000-0  28467-2 0  9997
2 45296  82.6343 307.9038 0192035  22.9432 338.0161 13.80797598326613

Śledź SL-14 DEB w czasie rzeczywistym z AllMySat

Download on the App Store